Location: Canyam�s
(41.5996°N, 2.4450°E)
Time: 08:31:55
(UTC+00:00)

ATLAS 5 CENTAUR R/B - Pass Details

Date: 06 June 2020
Orbit: 279 x 14309 km, 60.7° (Epoch: 08 July)

Event Time Altitude Azimuth Distance (km) Brightness Sun altitude
Rises 21:25:28 0° 210° (SSW) 6,708 7.1 -17.6°
Reaches altitude 10° 21:31:35 10° 208° (SSW) 4,067 5.9 -18.2°
Maximum altitude 21:39:19 59° 131° (SE) 759 2.1 -19.0°
Drops below altitude 10° 21:42:07 10° 50° (NE) 1,499 4.1 -19.2°
Sets 21:43:27 0° 45° (NE) 2,144 5.0 -19.4°
